www.pogodaiklimat.ru
ПОГОДА в Клеарфилде
Время
и дата
23:53 19.05
23:58 19.05
00:05 20.05
00:30 20.05
00:54 20.05
01:36 20.05
01:40 20.05
01:54 20.05
01:58 20.05
02:00 20.05
02:12 20.05
02:19 20.05
02:33 20.05
02:54 20.05
03:07 20.05
03:16 20.05
03:42 20.05
03:54 20.05
04:30 20.05
04:41 20.05
04:54 20.05
05:06 20.05
05:54 20.05
06:32 20.05
06:54 20.05
07:17 20.05
07:52 20.05
07:54 20.05
08:01 20.05
08:18 20.05
08:43 20.05
08:54 20.05
09:54 20.05
10:54 20.05
11:54 20.05
12:54 20.05
13:54 20.05
14:54 20.05
15:54 20.05
16:54 20.05
17:54 20.05
18:54 20.05
19:54 20.05
20:54 20.05
21:54 20.05
22:54 20.05
23:54 20.05
00:54 21.05
Ветер
(напр.,м/с)
Видим. Явления Облачность Т
(С)
Тd
(С)
f
(%)
Тe
(С)
Тes
(С)
Комфортность P
(гПа)
Po
(гПа)
Тmin
(С)
Tmax
(С)
R
(мм)
R24
(мм)
S
(см)
штиль 0 1 км дымка ясно +13.3 +13.3 100 +13 +13 1016.5 962.3
штиль 0 3 км дымка ясно +13.9 +13.9 100 +13 +13 962.3
штиль 0 14 км ясно +13.9 +13.9 100 +13 +13 962.3
штиль 0 6 км дымка 5/5 60 м +13.9 +13.9 100 +13 +13 962.6
штиль 0 16 км 2/2 60 м +14.4 +13.9 97 +14 +14 1016.7 962.6 +13.3 +22.8
С 2 2 км дымка ясно +12.8 +12.8 100 +12 +12 962.3
штиль 0 800 м туман ?/? +12.2 +12.2 100 +11 +11 962.3
штиль 0 5 км дымка ясно +12.2 +12.2 100 +11 +11 1016.3 962.0
штиль 0 3 км дымка 2/2 90 м +12.8 +12.8 100 +12 +12 962.0
штиль 0 1 км дымка ?/? +12.8 +12.8 100 +12 +12 962.0
С 2 400 м туман ?/? +11.7 +11.7 100 +10 +10 962.3
С 2 400 м туман ?/? +12.2 +12.2 100 +11 +11 962.0
штиль 0 800 м туман ?/? +12.2 +12.2 100 +11 +11 962.0
С 2 800 м туман ?/? +12.2 +12.2 100 +11 +11 1016.1 962.0
С 2 400 м туман ?/? +11.1 +11.1 100 +10 +10 962.0
С 2 1 км дымка ?/? +11.7 +11.7 100 +10 +10 962.0
штиль 0 400 м туман ?/? +11.7 +11.7 100 +11 +11 962.0
штиль 0 400 м туман ?/? +12.2 +12.2 100 +11 +11 1015.8 961.7
штиль 0 800 м туман ?/? +11.1 +11.1 100 +10 +10 962.3
штиль 0 400 м туман ?/? +11.1 +11.1 100 +10 +10 962.0
штиль 0 400 м туман ?/? +11.7 +11.7 100 +11 +11 1016.5 962.3
штиль 0 <100 м туман ?/? +12.2 +12.2 100 +11 +11 962.6
С 2 <100 м туман ?/? +12.2 +12.2 100 +11 +11 1017.2 963.0
штиль 0 400 м туман ?/? +12.2 +12.2 100 +11 +11 963.6
штиль 0 800 м туман ?/? +13.3 +13.3 100 +13 +13 1017.8 963.6 +11.1 +14.4
штиль 0 400 м туман ?/? +13.3 +13.3 100 +13 +13 963.6
штиль 0 1 км дымка ?/? +14.0 +14.0 100 +13 +13 963.9
штиль 0 1 км дымка ?/? +14.4 +14.4 100 +14 +14 1018.1 963.9
штиль 0 3 км дымка 10/10 60 м +15.0 +15.0 100 +15 +15 963.9
штиль 0 5 км дымка 10/10 60 м +15.0 +15.0 100 +15 +15 963.9
штиль 0 16 км 5/5 90 м +16.1 +15.6 97 +16 +20 963.6
штиль 0 16 км 2/2 90 м +17.2 +15.6 90 +17 +24 1017.8 963.6
нст 2 16 км ясно +21.7 +15.6 68 +25 +36 комфорт 1017.4 963.3
З 2 16 км ясно +24.4 +16.1 60 +28 +43 душно 1017.1 963.3
штиль 0 16 км ясно +25.6 +15.0 52 +28 +53 опасность
солнечного
удара
1016.8 963.0
Ю 2 16 км ясно +26.7 +16.1 52 +30 +49 душно 1016.2 962.3 +13.3 +26.7
нст 2 16 км ясно +27.8 +16.7 51 +31 +50 душно 1015.7 962.0
В 2 16 км ясно +27.8 +15.6 47 +31 +47 душно 1015.0 961.3
Ю 2 16 км 5/2 1800 m
[Ac]
+27.2 +16.1 51 +31 +38 душно 1014.5 960.7
Ю 2 16 км 2/2 1950 м +26.1 +16.1 54 +29 +36 жарко 1014.6 960.7
нст 3 16 км 2/0 2550 m
[Ac]
+26.1 +15.6 52 +29 +32 жарко 1014.3 960.7
штиль 0 16 км ясно +23.3 +15.0 60 +27 +30 душно 1014.8 961.0 +23.3 +28.9
штиль 0 16 км 2/0 2100 m
[Ac]
+20.0 +16.7 81 +22 +23 комфорт 1015.3 961.0
штиль 0 16 км ясно +20.0 +15.6 76 +22 +22 комфорт 1015.2 961.3
штиль 0 16 км ясно +17.2 +15.0 87 +17 +17 1015.5 961.7
штиль 0 16 км ясно +17.2 +15.0 87 +17 +17 1015.3 961.7
штиль 0 16 км ясно +15.6 +14.4 93 +15 +15 1015.4 961.7
штиль 0 16 км ясно +15.0 +13.9 93 +15 +15 1014.8 961.3 +15.0 +23.3
Местоположение метеостанции Clearfield-Lawrence Airport: широта 41.0467 долгота -78.4117 высота над уровнем моря 462 м.
В архиве по умолчанию представлена погода в Клеарфилде за последние 1-2 суток. Обновление информации о фактической погоде в базе происходит ежечасно! Архивные данные за месяц целиком и за предыдущие месяцы Вы можете получить, выбрав интересующий диапазон дат из раскрывающегося списка и нажав кнопку "Ввод!".
Внимание! Архив погоды МЕТАР в базе сайта по станциям, не включенным в климатический монитор, хранится не более 60 дней. Нет смысла пытаться выбрать более раннюю дату.
*Определитесь, кто Вы:
Внимание! Время в таблицах - местное (без учета летнего времени). Для получения всемирного времени необходимо вычесть поправку, которая равна -5 ч.
Смотрите также архив погоды в соседних городах и на ближайших метеорологических станциях:
Партнеры нашего сайта:      
Пояснения к столбцам:
  • Ветер - указаны скорость ветра в м/с - средняя за 10 мин, порывы в срок и между сроками (в фигурных скобках) и направление, откуда дует ветер: С - северный,
  • СВ - северо-восточный, В - восточный, ЮВ - юго-восточный, Ю - южный, ЮЗ - юго-западный, З - западный, СЗ - северо-западный.
  • Видимость - горизонтальная дальность видимости в метрах или километрах. При видимости от 1 до 10 км при отсутствии осадков обычно наблюдается дымка, при ухудшении видимости до 1 км и менее - туман. В сухую погоду видимость может ухудшаться дымом, пылью или мглою.
  • Явления - указаны атмосферные явления, наблюдавшиеся в срок или в последний час перед сроком; фигурными скобками обозначены явления, наблюдавшиеся между сроками (за 1-3 часа до срока); квадратными скобками обозначены град или гололедные отложения с указанием их диаметра в мм.
  • Облачность - указаны через наклонную черту общая и нижняя облачность в баллах и высота нижней границы облаков в метрах; квадратными скобками обозначены формы облаков: Ci - перистые, Cs - перисто-слоистые, Cc - перисто-кучевые, Ac - высококучевые, As - высокослоистые, Sc - слоисто-кучевые, Ns - слоисто-дождевые, Cu - кучевые, Cb - кучево-дождевые. Подробнее классификацию облаков см. в Атласе облаков (PDF).
  • T - Температура воздуха - температура, измеренная на высоте 2 м над землей.
  • Td - Температура точки росы - температура, при понижении до которой содержащийся в воздухе водяной пар достигнет насыщения.
  • f - Относительная влажность воздуха - влажноcть воздуха, измеренная на высоте 2 м над землей.
  • Te - Эффективная температура - температура, которую ощущает одетый по сезону человек в тени. Характеристика душности погоды. При расчете учитывается влияние влажности воздуха и скорости ветра на теплоощущения человека.
  • Tes - Эффективная температура на солнце - температура, которую ощущает человек, с поправкой на солнечный нагрев. Характеристика знойности погоды. Зависит от высоты солнца над горизонтом, облачности и скорости ветра. Ночью, в пасмурную погоду, а также при ветре 12 м/с и более поправка равна нулю.
  • P - Атмосферное давление - приведенное к уровню моря атмосферное давление.
  • Po - Атмосферное давление - измеренное на уровне метеостанции атмосферное давление.
  • Tmin - Минимальная температура - минимум температуры воздуха на высоте 2 м над землей.
  • Tmax - Максимальная температура - максимум температуры воздуха на высоте 2 м над землей.
  • R - Количество осадков - Количество выпавших осадков за период времени, мм. При наведении курсора мыши на число - период времени, за который выпало указанное количество осадков.
  • R24 - Количество осадков - Количество выпавших осадков за 24 часа, мм.
  • S - Снежный покров - Высота снежного покрова, см. При наведении курсора мыши на число - состояние снежного покрова и степень покрытия местности в баллах.